This is the latest recevied weather packets stored in our database for station/object N1OF. If no packets are shown the sender has not sent any weather packets the latest 10 day(s).
| Time | Temp. | Humidity | Pressure | Rain* | Wind** | Luminosity | Snow |
|---|---|---|---|---|---|---|---|
| 1777679361 | 8.33° C | 66% | 1015.6 hPa | 0 mm | - | - | - |
| 1777679058 | 7.78° C | 67% | 1015.6 hPa | 0 mm | - | - | - |
| 1777678757 | 8.33° C | 67% | 1015.5 hPa | 0 mm | - | - | - |
| 1777678454 | 7.78° C | 65% | 1015.5 hPa | 0 mm | - | - | - |
| 1777678149 | 7.78° C | 69% | 1015.5 hPa | 0 mm | - | - | - |
| 1777677847 | 7.78° C | 70% | 1015.7 hPa | 0 mm | - | - | - |
| 1777677544 | 7.78° C | 69% | 1015.6 hPa | 0 mm | - | - | - |
| 1777677242 | 8.33° C | 71% | 1015.5 hPa | 0 mm | - | - | - |
| 1777676940 | 8.33° C | 73% | 1015.6 hPa | 0 mm | - | - | - |
| 1777676639 | 8.33° C | 75% | 1015.9 hPa | 0 mm | - | - | - |
| 1777676336 | 8.33° C | 74% | 1015.6 hPa | 0 mm | - | - | - |
| 1777676033 | 8.33° C | 74% | 1015.4 hPa | 0 mm | - | - | - |
| 1777675729 | 8.33° C | 74% | 1015.5 hPa | 0 mm | - | - | - |
| 1777675427 | 8.33° C | 73% | 1015.7 hPa | 0 mm | - | - | - |
| 1777675123 | 8.89° C | 73% | 1015.4 hPa | 0 mm | - | - | - |
| 1777674819 | 8.33° C | 74% | 1015.7 hPa | 0 mm | - | - | - |
| 1777674515 | 8.33° C | 74% | 1015.6 hPa | 0 mm | - | - | - |
| 1777674213 | 7.78° C | 78% | 1015.6 hPa | 0 mm | - | - | - |
| 1777673909 | 7.78° C | 78% | 1015.4 hPa | 0 mm | - | - | - |
| 1777673606 | 7.78° C | 79% | 1015.6 hPa | 0 mm | - | - | - |
| 1777673304 | 7.78° C | 78% | 1015.4 hPa | 0 mm | - | - | - |
| 1777673001 | 7.78° C | 79% | 1015.7 hPa | 0 mm | - | - | - |
| 1777672698 | 7.78° C | 78% | 1015.6 hPa | 0 mm | - | - | - |
| 1777672394 | 7.78° C | 76% | 1015.4 hPa | 0 mm | - | - | - |
| 1777672089 | 7.78° C | 76% | 1015.5 hPa | 0 mm | - | - | - |
* Rain latest hour (hover to see other rain measurements)
** Current wind speed in m/s (hover to see current wind gust speed)